When you browse on this site, cookies collect data to enhance your experience and personalize the content and advertising you see.
Visit our Privacy Policy to learn more. By continuing to use the site, you agree to this use of cookies and data.
  • In Sweden
  • List of Countries
  • For 7 days
  • Water Temperature
  • Satellite Maps
  • Weather Map
  • Weather Widgets
  • user-avatar
    Login

    Hourly Weather Daniszewice

    Today, 21 July, Sunday

    Time Temperature Precipitation Wind Pressure Humidity
    00:00 +20°C° 0 mm 2 mps 742 mmHg 71%
    01:00 +20°C° 0 mm 3 mps 742 mmHg 72%
    02:00 +20°C° 0.8 mm 3 mps 742 mmHg 77%
    03:00 +19°C° 0.8 mm 2 mps 742 mmHg 82%
    04:00 +18°C° 0.8 mm 2 mps 741 mmHg 87%
    05:00 +20°C° 0.3 mm 3 mps 741 mmHg 84%
    06:00 +21°C° 0.3 mm 3 mps 741 mmHg 82%
    07:00 +22°C° 0.3 mm 3 mps 741 mmHg 79%
    08:00 +23°C° 0 mm 4 mps 742 mmHg 73%
    09:00 +26°C° 0 mm 4 mps 742 mmHg 67%
    10:00 +28°C° 0 mm 5 mps 743 mmHg 60%
    11:00 +28°C° 0 mm 5 mps 743 mmHg 58%
    12:00 +29°C° 0 mm 5 mps 743 mmHg 55%
    13:00 +29°C° 0 mm 5 mps 743 mmHg 52%
    14:00 +28°C° 0.1 mm 5 mps 743 mmHg 55%
    15:00 +28°C° 0.1 mm 5 mps 743 mmHg 58%
    16:00 +27°C° 0.1 mm 4 mps 743 mmHg 62%
    17:00 +26°C° 0.2 mm 4 mps 743 mmHg 66%
    18:00 +25°C° 0.2 mm 4 mps 743 mmHg 71%
    19:00 +24°C° 0.2 mm 3 mps 743 mmHg 76%
    20:00 +21°C° 0.1 mm 3 mps 744 mmHg 78%
    21:00 +20°C° 0.1 mm 3 mps 744 mmHg 81%
    22:00 +19°C° 0.1 mm 3 mps 745 mmHg 83%
    23:00 +19°C° 0 mm 3 mps 745 mmHg 85%

    Tomorrow, 22 July, Monday

    Time Temperature Precipitation Wind Pressure Humidity
    00:00 +18°C° 0 mm 3 mps 745 mmHg 86%
    01:00 +18°C° 0 mm 3 mps 745 mmHg 88%
    02:00 +17°C° 0 mm 3 mps 746 mmHg 89%
    03:00 +17°C° 0 mm 3 mps 746 mmHg 91%
    04:00 +17°C° 0 mm 3 mps 746 mmHg 92%
    05:00 +18°C° 0 mm 3 mps 746 mmHg 87%
    06:00 +19°C° 0 mm 4 mps 746 mmHg 81%
    07:00 +20°C° 0 mm 4 mps 747 mmHg 76%
    08:00 +21°C° 0 mm 4 mps 747 mmHg 70%
    09:00 +22°C° 0 mm 5 mps 747 mmHg 63%
    10:00 +23°C° 0 mm 6 mps 747 mmHg 57%
    11:00 +23°C° 0 mm 6 mps 747 mmHg 54%
    12:00 +24°C° 0 mm 6 mps 747 mmHg 51%
    13:00 +24°C° 0 mm 6 mps 747 mmHg 49%
    14:00 +25°C° 0 mm 5 mps 747 mmHg 49%
    15:00 +25°C° 0 mm 5 mps 747 mmHg 50%
    16:00 +25°C° 0 mm 5 mps 746 mmHg 50%
    17:00 +22°C° 0 mm 4 mps 746 mmHg 55%
    18:00 +21°C° 0 mm 4 mps 746 mmHg 60%
    19:00 +20°C° 0 mm 3 mps 746 mmHg 64%
    20:00 +19°C° 0 mm 2 mps 746 mmHg 66%
    21:00 +19°C° 0 mm 2 mps 747 mmHg 68%
    22:00 +18°C° 0 mm 2 mps 747 mmHg 69%
    23:00 +17°C° 0 mm 2 mps 747 mmHg 70%

    Day after tomorrow, 23 July, Tuesday

    Time Temperature Precipitation Wind Pressure Humidity
    00:00 +17°C° 0 mm 2 mps 747 mmHg 71%
    01:00 +17°C° 0 mm 2 mps 746 mmHg 73%
    02:00 +17°C° 0 mm 2 mps 746 mmHg 72%
    03:00 +17°C° 0 mm 2 mps 746 mmHg 71%
    04:00 +19°C° 0 mm 1 mps 746 mmHg 70%
    05:00 +19°C° 0 mm 1 mps 746 mmHg 71%
    06:00 +18°C° 0 mm 2 mps 746 mmHg 72%
    07:00 +18°C° 0 mm 2 mps 746 mmHg 73%
    08:00 +18°C° 0 mm 2 mps 746 mmHg 73%
    09:00 +18°C° 0 mm 2 mps 746 mmHg 72%
    10:00 +18°C° 0 mm 3 mps 747 mmHg 72%
    11:00 +19°C° 0 mm 3 mps 746 mmHg 71%
    12:00 +19°C° 0 mm 3 mps 746 mmHg 70%
    13:00 +20°C° 0 mm 3 mps 746 mmHg 69%
    14:00 +21°C° 0 mm 3 mps 746 mmHg 69%
    15:00 +21°C° 0 mm 3 mps 746 mmHg 69%
    16:00 +23°C° 0 mm 2 mps 745 mmHg 69%
    17:00 +23°C° 0 mm 2 mps 745 mmHg 72%
    18:00 +22°C° 0 mm 1 mps 745 mmHg 75%
    19:00 +20°C° 0 mm 0 mps 745 mmHg 78%
    20:00 +19°C° 0 mm 0 mps 745 mmHg 81%
    21:00 +18°C° 0 mm 0 mps 745 mmHg 83%
    22:00 +17°C° 0 mm 0 mps 745 mmHg 85%
    23:00 +19°C° 0 mm 1 mps 745 mmHg 86%

    24 July, Wednesday

    Time Temperature Precipitation Wind Pressure Humidity
    00:00 +19°C° 0 mm 1 mps 745 mmHg 87%
    01:00 +19°C° 0 mm 1 mps 745 mmHg 88%
    02:00 +19°C° 0 mm 1 mps 745 mmHg 90%
    03:00 +18°C° 0 mm 1 mps 745 mmHg 91%
    04:00 +18°C° 0 mm 1 mps 745 mmHg 93%
    05:00 +18°C° 0 mm 2 mps 745 mmHg 88%
    06:00 +20°C° 0 mm 2 mps 745 mmHg 83%
    07:00 +21°C° 0 mm 2 mps 745 mmHg 78%
    08:00 +23°C° 0 mm 2 mps 745 mmHg 73%
    09:00 +25°C° 0 mm 2 mps 745 mmHg 68%
    10:00 +26°C° 0 mm 2 mps 745 mmHg 63%
    11:00 +26°C° 0 mm 2 mps 745 mmHg 62%
    12:00 +26°C° 0 mm 2 mps 745 mmHg 61%
    13:00 +27°C° 0 mm 2 mps 745 mmHg 60%
    14:00 +27°C° 0 mm 2 mps 745 mmHg 59%
    15:00 +27°C° 0 mm 3 mps 745 mmHg 58%
    16:00 +28°C° 0 mm 3 mps 745 mmHg 57%
    17:00 +26°C° 0 mm 2 mps 745 mmHg 62%
    18:00 +25°C° 0 mm 2 mps 745 mmHg 67%
    19:00 +24°C° 0 mm 2 mps 745 mmHg 73%
    20:00 +23°C° 0 mm 2 mps 745 mmHg 76%
    21:00 +22°C° 0 mm 1 mps 745 mmHg 80%
    22:00 +21°C° 0 mm 1 mps 745 mmHg 84%
    23:00 +20°C° 0 mm 1 mps 745 mmHg 85%

    25 July, Thursday

    Time Temperature Precipitation Wind Pressure Humidity
    00:00 +20°C° 0 mm 1 mps 745 mmHg 86%
    01:00 +20°C° 0 mm 1 mps 746 mmHg 88%
    02:00 +19°C° 0 mm 1 mps 745 mmHg 88%
    03:00 +17°C° 0 mm 0 mps 745 mmHg 89%
    04:00 +17°C° 0 mm 0 mps 745 mmHg 90%
    05:00 +19°C° 0 mm 0 mps 745 mmHg 84%
    06:00 +20°C° 0 mm 0 mps 746 mmHg 78%
    07:00 +22°C° 0 mm 0 mps 746 mmHg 72%
    08:00 +25°C° 0 mm 1 mps 746 mmHg 67%
    09:00 +27°C° 0 mm 1 mps 746 mmHg 61%
    10:00 +28°C° 0 mm 2 mps 746 mmHg 56%
    11:00 +29°C° 0 mm 2 mps 746 mmHg 52%
    12:00 +30°C° 0 mm 2 mps 746 mmHg 48%
    13:00 +31°C° 0 mm 2 mps 745 mmHg 44%
    14:00 +31°C° 0 mm 2 mps 745 mmHg 44%
    15:00 +30°C° 0 mm 3 mps 745 mmHg 44%
    16:00 +30°C° 0 mm 3 mps 745 mmHg 45%
    17:00 +29°C° 0 mm 3 mps 745 mmHg 51%
    18:00 +28°C° 0 mm 2 mps 745 mmHg 56%
    19:00 +26°C° 0 mm 2 mps 745 mmHg 62%
    20:00 +25°C° 0 mm 2 mps 745 mmHg 65%
    21:00 +24°C° 0 mm 3 mps 745 mmHg 69%
    22:00 +22°C° 0 mm 3 mps 745 mmHg 73%
    23:00 +21°C° 0 mm 2 mps 745 mmHg 76%

    26 July, Friday

    Time Temperature Precipitation Wind Pressure Humidity
    00:00 +21°C° 0 mm 2 mps 745 mmHg 79%
    01:00 +20°C° 0 mm 2 mps 745 mmHg 82%
    02:00 +20°C° 0 mm 2 mps 745 mmHg 85%
    03:00 +19°C° 0 mm 2 mps 745 mmHg 87%
    04:00 +19°C° 0 mm 2 mps 745 mmHg 90%
    05:00 +20°C° 0 mm 2 mps 745 mmHg 85%
    06:00 +23°C° 0 mm 2 mps 745 mmHg 79%
    07:00 +24°C° 0 mm 2 mps 745 mmHg 73%
    08:00 +26°C° 0 mm 3 mps 745 mmHg 67%
    09:00 +27°C° 0 mm 3 mps 745 mmHg 60%
    10:00 +29°C° 0 mm 3 mps 745 mmHg 53%
    11:00 +30°C° 0 mm 3 mps 744 mmHg 50%
    12:00 +30°C° 0 mm 3 mps 744 mmHg 47%
    13:00 +32°C° 0 mm 4 mps 744 mmHg 44%
    14:00 +31°C° 0 mm 3 mps 744 mmHg 44%
    15:00 +31°C° 0 mm 3 mps 743 mmHg 44%
    16:00 +31°C° 0 mm 3 mps 743 mmHg 44%
    17:00 +29°C° 0 mm 3 mps 743 mmHg 50%
    18:00 +28°C° 0 mm 3 mps 743 mmHg 56%
    19:00 +26°C° 0 mm 2 mps 743 mmHg 62%
    20:00 +25°C° 0 mm 2 mps 743 mmHg 65%
    21:00 +24°C° 0 mm 2 mps 743 mmHg 69%
    22:00 +23°C° 0 mm 2 mps 743 mmHg 72%
    23:00 +21°C° 0 mm 2 mps 743 mmHg 75%
    Show more